TimeEDT,TemperatureF,Dew PointF,Humidity,Sea Level PressureIn,VisibilityMPH,Wind Direction,Wind SpeedMPH,Gust SpeedMPH,PrecipitationIn,Events,Conditions,WindDirDegrees,DateUTC
12:53 AM,66.0,57.0,73,29.94,10.0,WNW,10.4,19.6,N/A,,Scattered Clouds,300,2013-04-06 04:53:00
1:53 AM,63.0,57.0,81,29.93,10.0,NW,10.4,19.6,N/A,,Clear,310,2013-04-06 05:53:00
2:53 AM,62.1,57.0,84,29.94,10.0,Variable,3.5,-,N/A,,Clear,0,2013-04-06 06:53:00
3:32 AM,60.8,57.2,88,29.94,10.0,NW,5.8,-,N/A,,Mostly Cloudy,310,2013-04-06 07:32:00
3:53 AM,61.0,57.9,90,29.94,10.0,NW,5.8,-,N/A,,Mostly Cloudy,310,2013-04-06 07:53:00
4:53 AM,62.1,60.1,93,29.94,10.0,NNW,8.1,-,N/A,,Scattered Clouds,340,2013-04-06 08:53:00
5:53 AM,62.1,59.0,90,29.95,10.0,NNW,12.7,-,N/A,,Partly Cloudy,330,2013-04-06 09:53:00
6:53 AM,61.0,57.9,90,29.96,10.0,NNW,12.7,-,N/A,,Partly Cloudy,330,2013-04-06 10:53:00
7:53 AM,60.1,57.0,90,30.00,10.0,NNW,10.4,-,N/A,,Partly Cloudy,330,2013-04-06 11:53:00
8:53 AM,63.0,57.9,84,30.01,10.0,NNW,13.8,-,N/A,,Clear,340,2013-04-06 12:53:00
9:53 AM,66.9,57.9,73,30.03,10.0,NW,11.5,-,N/A,,Partly Cloudy,320,2013-04-06 13:53:00
10:53 AM,71.1,60.1,68,30.04,10.0,North,10.4,-,N/A,,Partly Cloudy,10,2013-04-06 14:53:00
11:53 AM,75.0,60.1,60,30.03,10.0,NNE,8.1,-,N/A,,Clear,20,2013-04-06 15:53:00
12:53 PM,75.9,61.0,60,30.03,10.0,NE,13.8,-,N/A,,Partly Cloudy,40,2013-04-06 16:53:00
1:53 PM,77.0,62.1,60,30.02,10.0,NE,15.0,-,N/A,,Mostly Cloudy,50,2013-04-06 17:53:00
2:53 PM,77.0,63.0,62,30.01,10.0,ENE,12.7,-,N/A,,Partly Cloudy,60,2013-04-06 18:53:00
3:53 PM,78.1,62.1,58,30.01,10.0,NE,16.1,-,N/A,,Scattered Clouds,50,2013-04-06 19:53:00
4:53 PM,77.0,60.1,56,30.01,10.0,ENE,13.8,-,N/A,,Scattered Clouds,60,2013-04-06 20:53:00
5:53 PM,75.9,61.0,60,30.02,10.0,NE,13.8,23.0,N/A,,Mostly Cloudy,50,2013-04-06 21:53:00
6:53 PM,75.0,60.1,60,30.03,10.0,NE,13.8,-,N/A,,Partly Cloudy,50,2013-04-06 22:53:00
7:53 PM,73.9,59.0,59,30.04,10.0,NE,13.8,-,N/A,,Scattered Clouds,40,2013-04-06 23:53:00
8:53 PM,73.9,57.9,57,30.05,10.0,ENE,10.4,-,N/A,,Scattered Clouds,60,2013-04-07 00:53:00
9:53 PM,73.0,60.1,64,30.06,10.0,NE,9.2,-,N/A,,Partly Cloudy,50,2013-04-07 01:53:00
10:53 PM,73.0,61.0,66,30.08,10.0,ENE,13.8,-,N/A,,Partly Cloudy,60,2013-04-07 02:53:00
11:53 PM,73.0,61.0,66,30.09,10.0,ENE,10.4,-,N/A,,Clear,70,2013-04-07 03:53:00